Skip Page Navigation
NASA JPL Caltech
NASA Logo - Jet Propulsion Laboratory + View the NASA Portal
+ Center for Near-Earth Object Studies
JPL Home Earth Solar System Stars & Galaxies Technology
JPL Solar System Dynamics
BODIES ORBITS EPHEMERIDES TOOLS PHYSICAL DATA DISCOVERY FAQ SITE MAP
JPL Small-Body Database Browser
Search: [ help ]  
192319 (1994 RY24)
Classification: Main-belt Asteroid          SPK-ID: 2192319
Ephemeris | Orbit Diagram | Orbital Elements | Mission Design | Physical Parameters | Discovery Circumstances | Close-Approach Data ]

[ show orbit diagram ]
Orbital Elements at Epoch 2459200.5 (2020-Dec-17.0) TDB
Reference: JPL 19 (heliocentric ecliptic J2000)
 Element Value Uncertainty (1-sigma)   Units 
e .1093996675803959 5.3267e-08  
a 2.744283076990111 2.1557e-08 au
q 2.444059420620887 1.4926e-07 au
i 2.882814867137949 4.3413e-06 deg
node 281.8792047135675 0.00011497 deg
peri 79.4552961235111 0.00011806 deg
M 264.4659654340929 3.2217e-05 deg
tp 2459641.153685170506
(2022-Mar-02.65368517)
0.00015173 TDB
period 1660.511119227803
4.55
1.9566e-05
5.357e-08
d
yr
n .2168007162562169 2.5545e-09 deg/d
Q 3.044506733359336 2.3915e-08 au
  Orbit Determination Parameters
   # obs. used (total)      402  
   data-arc span      9398 days (25.73 yr)  
   first obs. used      1994-09-01  
   last obs. used      2020-05-25  
   planetary ephem.      DE441  
   SB-pert. ephem.      SB441-N16  
   condition code      0  
   norm. resid. RMS      .59909  
   source      ORB  
   producer      Otto Matic  
   solution date      2021-Apr-13 22:15:37  

Additional Information
 Earth MOID = 1.44135 au 
 Jupiter MOID = 2.40337 au 
 T_jup = 3.338 
[ show covariance matrix ]

Ephemeris | Orbit Diagram | Orbital Elements | Mission Design | Physical Parameters | Discovery Circumstances | Close-Approach Data ]

Physical Parameter Table
Parameter Symbol Value Units Sigma Reference Notes
absolute magnitude H 15.89   n/a MPCxxxxx  

192319 (1994 RY24)          Discovered 1994-Sep-05 by Elst, E. W. at La Silla
Reference: 20081113/Numbers.arcLast Updated: 2008-11-17

[ show close-approach data ]
Alternate Designations
 1994 RY24 = 2003 QJ4 
Ephemeris | Orbit Diagram | Orbital Elements | Mission Design | Physical Parameters | Discovery Circumstances | Close-Approach Data ]
ABOUT SSD CREDITS/AWARDS PRIVACY/COPYRIGHT GLOSSARY LINKS
FirstGov 2021-May-12 06:12 UT
(server date/time)  
NASA Home Page
Site Manager:   Ryan S. Park
Webmaster  Alan B. Chamberlin